www.pogodaiklimat.ru

Погода и климат >> Архив погоды >> Ирак >> Тикрит


ПОГОДА в Тикрите

  • Прогноз погоды в Тикрите
  • Монитор погоды в Тикрите

АРХИВ ПОГОДЫ в Тикрите

Время (UTC), дата Ветер
(напр.,м/с)
 
Видим.   Явления Облачность Т
(С)
Тd
(С)
f
(%)
Тe
(С)
Тes
(С)
Комфортность P
(гПа)
Po
(гПа)
Тmin
(С)
Tmax
(С)
R
(мм)
R24
(мм)
S
(см)
06 15.04 С 3 10 км ясно +21.0 +14.1 65 +24 +32 комфорт 1013.4 1000.9 +14.5
09 15.04 С 3 10 км ясно +26.5 +13.9 46 +29 +44 жарко 1012.8 1000.5
12 15.04 С 3 10 км 6/0
[Ci sp]
+28.5 +14.4 42 +31 +38 душно 1011.7 999.5
15 15.04 С 3 10 км 10/0
[Ac As]
+26.0 +13.2 45 +28 +28 жарко 1012.3 1000.0
18 15.04 С 3 10 км 4/0
[Ci sp]
+22.0 +12.7 56 +25 +25 комфорт 1013.7 1001.2 +29.0
06 16.04 С 2 10 км 10/1 750 м
[Cu hum As op]
+20.0 +15.8 77 +23 +25 комфорт 1012.6 1000.0 +18.0
09 16.04 В 3 10 км 6/1 750 м
[Cu hum Ac trans]
+26.5 +15.6 51 +30 +39 душно 1011.3 999.0
12 16.04 ЮВ 3 10 км 4/0
[Ac trans]
+28.0 +12.7 39 +29 +36 жарко 1009.0 996.8
15 16.04 ЮВ 3 10 км 8/4 900 м
[Sc As op]
+26.5 +12.8 43 +28 +28 жарко 1005.9 993.7
18 16.04 В 3 10 км гроза без осадков {ливн. осадки} 6/6 750 м
[Cb calv]
+19.8 +17.7 88 +23 +23 комфорт 1005.3 992.8 +28.3 6
06 17.04 С 4 10 км 1/1 750 м
[Cu hum]
+16.5 +9.8 65 +16 +22 1011.2 998.5 +13.4 0.8
09 17.04 СЗ 3 10 км 6/4 750 м
[Cu hum Ci fib]
+20.5 +10.3 52 +22 +31 комфорт 1012.2 999.7
12 17.04 СЗ 2 10 км 8/8 750 м
[Cu med, cong]
+21.5 +9.8 47 +23 +25 комфорт 1012.1 999.6
15 17.04 СЗ 2 10 км 5/1 750 м
[Cu hum Ac trans]
+21.0 +10.3 50 +23 +24 комфорт 1012.0 999.5
18 17.04 СВ 2 10 км 5/0
[Ac trans]
+18.0 +11.6 66 +19 +19 1013.0 1000.4 +22.2
09 18.04 СВ 3 10 км 4/1 750 м
[Cu hum Ac trans]
+24.2 +10.5 42 +25 +37 комфорт 1013.3 1000.9
12 18.04 С 3 10 км 9/9 750 м
[Cu Sc]
+24.3 +10.2 41 +25 +26 комфорт 1011.7 999.3
15 18.04 Ю 4 8000 м слаб. дождь 10/10 750 м
[Cu Sc]
+18.2 +12.4 69 +18 +18 1013.1 1000.5
18 18.04 С 3 8000 м слаб. дождь 10/10 750 м
[Cu Sc]
+15.0 +13.2 89 +14 +14 1013.8 1001.0 +25.5 2
06 19.04 СВ 1 10 км 5/5 750 м
[Cu med, cong Ci fib]
+17.6 +12.9 74 +19 +25 1012.5 999.8 +12.2 0.2
09 19.04 штиль 0 10 км 8/6 750 м
[Cu med, cong Ci fib]
+22.4 +11.3 49 +25 +34 комфорт 1011.6 999.2
12 19.04 ЮЗ 4 10 км 9/9 750 м
[Cu med, cong]
+22.0 +9.3 44 +23 +24 комфорт 1009.3 996.9
15 19.04 С 4 10 км 4/4 750 м
[Cu Sc]
+15.4 +12.8 84 +14 +15 1010.3 997.6
18 19.04 СВ 1 10 км {ливн. осадки} 3/3 750 м
[Cu med, cong]
+13.2 +11.3 88 +13 +13 1012.2 999.4 +23.4 2
06 20.04 С 1 10 км ясно +14.6 +9.7 72 +15 +27 опасность
простуды
1014.7 1001.9 +8.8
09 20.04 С 1 10 км 6/6 750 м
[Cu med, cong]
+19.2 +9.3 53 +21 +30 комфорт 1014.5 1001.9
12 20.04 Ю 1 10 км 6/6 750 м
[Cu med, cong]
+21.2 +7.2 40 +22 +27 комфорт 1013.0 1000.5
15 20.04 З 2 10 км 4/4 750 м
[Cu med, cong]
+19.6 +8.2 48 +21 +21 комфорт 1012.9 1000.3
18 20.04 штиль 0 10 км ясно +16.1 +10.4 69 +16 +16 1013.9 1001.2 +21.6
06 21.04 В 3 10 км 3/0
[Ac trans]
+19.0 +10.0 56 +20 +27 1011.1 998.5 +10.7
09 21.04 Ю 6 10 км 3/3 750 м
[Cu med, cong]
+24.6 +5.5 29 +24 +30 комфорт 1009.6 997.3
12 21.04 Ю 5 10 км 5/5 750 м
[Cu med, cong]
+25.4 +2.1 22 +24 +27 комфорт 1006.4 994.1
15 21.04 З 5 8000 м слаб. дождь 9/9 750 м
[Cu Sc]
+18.6 +8.8 53 +19 +19 1007.9 995.3
18 21.04 Ю 2 10 км в посл. час дождь 4/0
[Ac trans]
+15.2 +9.3 68 +15 +15 1006.9 994.2 +27.6 3

 

Местоположение метеостанции Тикрит (Ирак): широта 34.57 долгота 43.70 высота над уровнем моря 107 м.

В архиве по умолчанию представлена погода в Тикрите за последнюю неделю. Архивные данные за месяц целиком и за предыдущие месяцы, начиная с января 2011 года, Вы можете получить, выбрав интересующий диапазон дат из раскрывающегося списка и нажав кнопку "Ввод!".


*Определитесь, кто Вы:
робот инопланетянин человек

Внимание! Время в таблицах - всемирное. Для получения местного времени необходимо прибавить поправку, которая равна 3 ч.

Смотрите также архив погоды в соседних городах и на ближайших метеорологических станциях:

Погода в Бейджи (Ирак) (45 км)
Погода в Тузе (Ирак) (93 км)
Погода в Хите (Ирак) (105 км)
Погода в Эль-Халисе (Ирак) (112 км)
Погода в Киркуке (Ирак) (119 км)
Погода в Эр-Рамади (Ирак) (129 км)
Погода в Махмуре (Ирак) (132 км)
Погода в Хадите (Ирак) (134 км)
Погода в Айн Аль-Тамаре (Ирак) (147 км)
Погода в Чамчамале (Ирак) (147 км)

Пояснения к столбцам:

Ветер - указаны скорость ветра в м/с - средняя за 10 мин, порывы в срок и между сроками (в фигурных скобках) и направление, откуда дует ветер: С - северный, СВ - северо-восточный, В - восточный, ЮВ - юго-восточный, Ю - южный, ЮЗ - юго-западный, З - западный, СЗ - северо-западный.
Видимость - горизонтальная дальность видимости в метрах или километрах. При видимости от 1 до 10 км при отсутствии осадков обычно наблюдается дымка, при ухудшении видимости до 1 км и менее - туман. В сухую погоду видимость может ухудшаться дымом, пылью или мглою.
Явления - указаны атмосферные явления, наблюдавшиеся в срок или в последний час перед сроком; фигурными скобками обозначены явления, наблюдавшиеся между сроками (за 1-3 часа до срока); квадратными скобками обозначены град или гололедные отложения с указанием их диаметра в мм.
Облачность - указаны через наклонную черту общая и нижняя облачность в баллах и высота нижней границы облаков в метрах; квадратными скобками обозначены формы облаков: Ci - перистые, Cs - перисто-слоистые, Cc - перисто-кучевые, Ac - высококучевые, As - высокослоистые, Sc - слоисто-кучевые, Ns - слоисто-дождевые, Cu - кучевые, Cb - кучево-дождевые. Подробнее классификацию облаков см. в Атласе облаков (PDF).
T - Температура воздуха - температура, измеренная на высоте 2 м над землей.
Td - Температура точки росы - температура, при понижении до которой содержащийся в воздухе водяной пар достигнет насыщения.
f - Относительная влажность воздуха - влажноcть воздуха, измеренная на высоте 2 м над землей.
Te - Эффективная температура - температура, которую ощущает одетый по сезону человек в тени. Характеристика душности погоды. При расчете учитывается влияние влажности воздуха и скорости ветра на теплоощущения человека.
Tes - Эффективная температура на солнце - температура, которую ощущает человек, с поправкой на солнечный нагрев. Характеристика знойности погоды. Зависит от высоты солнца над горизонтом, облачности и скорости ветра. Ночью, в пасмурную погоду, а также при ветре 12 м/с и более поправка равна нулю.
P - Атмосферное давление - приведенное к уровню моря атмосферное давление.
Po - Атмосферное давление - измеренное на уровне метеостанции атмосферное давление.
Tmin - Минимальная температура - минимум температуры воздуха на высоте 2 м над землей.
Tmax - Максимальная температура - максимум температуры воздуха на высоте 2 м над землей.
R - Количество осадков - Количество выпавших осадков за период времени, мм. При наведении курсора мыши на число - период времени, за который выпало указанное количество осадков.
R24 - Количество осадков - Количество выпавших осадков за 24 часа, мм.
S - Снежный покров - Высота снежного покрова, см. При наведении курсора мыши на число - состояние снежного покрова и степень покрытия местности в баллах.